Flag for Germany Weather past 2 weeks in Erding, Bavaria, Germany

Now
54 °F

Partly sunny.


Feels Like: 52 °F
Forecast: 50 / 65 °F
Wind: 6 mph from West

Location: Erding Airport

Current Time: Sep 2, 2014 at 9:44:04 AM

Latest Report: Sep 2, 2014 at 8:20 AM


Visibility: 4 mi

Pressure: 30.12 "Hg

Humidity: 100%

Dew point: 54 °F

Location of ErdingLocation

Historic Weather in Erding — Graph

°F

Erding temperature yesterday

Maximum temperature yesterday: 59 °F (at 2:20 PM)
Minimum temperature yesterday: 52 °F (at 12:20 AM)
Average temperature yesterday: 55 °F

Past Weeks' High & Low Weather Summary

 TemperatureHumidityPressure
High72 °F (Aug 18, 3:20 PM)100% (Aug 19, 5:20 AM)30.15 "Hg (Aug 19, 5:20 AM)
Low45 °F (Aug 25, 3:20 AM)38% (Aug 21, 5:20 PM)29.74 "Hg (Aug 26, 8:20 AM)
Average59 °F80%30.02 "Hg
* Reported Aug 18 8:20 AM — Sep 2 8:20 AM, Erding, Weather by CustomWeather, © 2014

Note: Actual official high and low records may vary slightly from our data, if they occured in-between our weather recording intervals... More about our weather records

Advertising

Erding weather history for previous 24 hours

 ConditionsComfort  
Time TempWeatherWind HumidityBarometerVisibility
8:20 AM
Sep 2
54 °FPartly sunny.6 mph100%30.12 "Hg4 mi
7:20 AM54 °FPassing clouds.5 mph94%30.12 "Hg6 mi
6:20 AM52 °FPassing clouds.5 mph100%30.12 "Hg6 mi
5:20 AM54 °FPartly cloudy.5 mph94%30.12 "Hg3 mi
4:20 AM54 °FCool.6 mph94%30.12 "Hg3 mi
3:20 AM54 °FCool.5 mph94%30.12 "Hg4 mi
2:20 AM54 °FCool.5 mph94%30.12 "Hg4 mi
1:20 AM54 °FCool.5 mph94%30.15 "Hg4 mi
12:20 AM55 °FCool.5 mph88%30.15 "Hg4 mi
11:20 PM
Sep 1
55 °FCool.5 mph88%30.15 "Hg4 mi
10:20 PM54 °FCool.5 mph88%30.15 "Hg5 mi
9:20 PM54 °FCool.5 mph88%30.15 "Hg4 mi
8:20 PM54 °FCool.6 mph88%30.15 "Hg5 mi
7:20 PM57 °FCool.5 mph77%30.12 "Hg5 mi
6:20 PM57 °FCool.5 mph82%30.12 "Hg5 mi
5:20 PM57 °FCool.8 mph77%30.12 "Hg5 mi
4:20 PM59 °FBroken clouds.9 mph72%30.12 "HgN/A
3:20 PM59 °FBroken clouds.9 mph72%30.09 "HgN/A
2:20 PM59 °FPartly sunny.10 mph72%30.12 "HgN/A
1:20 PM57 °FBroken clouds.9 mph77%30.09 "HgN/A
12:20 PM55 °FBroken clouds.9 mph82%30.09 "HgN/A
11:20 AM55 °FPartly sunny.8 mph82%30.09 "HgN/A
10:20 AM55 °FPartly sunny.8 mph88%30.07 "HgN/A
9:20 AM54 °FPartly sunny.7 mph94%30.07 "HgN/A
Weather by CustomWeather, © 2014

See weather overviewHow to use our weather pages